Tracking 32964 objects as of 21-Jan-2026
HD Live streaming from Space Station
objects crossing your sky now

CZ-6A DEB

Track CZ-6A DEB now!
10-day predictions


NORAD ID: 54983
Int'l Code: 2022-151TY
Perigee: 835.6 km
Apogee: 1,221.8 km
Inclination: 98.9 °
Period: 105.6 minutes
Semi major axis: 7399 km
RCS: Unknown
Launch date: November 11, 2022
Source: People's Republic of China (PRC)
Launch site: Taiyaun Space Center, China (TSC)

Note: This is SATELLITE DEBRIS
Your satellite tracking list
Your tracking list is empty




NASA's NSSDC Master Catalog

Two Line Element Set (TLE):
1 54983U 22151TY  26019.75691355  .00000114  00000-0  15530-3 0  9992
2 54983  98.9119 302.5893 0260990 267.5422  89.5824 13.63893657157495
Source of the keplerian elements: AFSPC